Weather History for Bonaire, Bonaire

Change the Weather History Date:

Wednesday, October 19, 2011

  Actual Average Record
Temperature  
Mean Temperature 84 °F -  
Max Temperature 89 °F 87 °F 93 °F (2005)
Min Temperature 78 °F 80 °F 77 °F (2012)
Cooling Degree Days 18    
Growing Degree Days 34 (Base 50)    
Moisture  
Dew Point 74 °F    
Average Humidity 71    
Maximum Humidity 89    
Minimum Humidity 44    
Precipitation  
Precipitation 0.01 in - - ()
Sea Level Pressure  
Sea Level Pressure 29.91 in    
Wind  
Wind Speed 4 mph ()    
Max Wind Speed 10 mph    
Max Gust Speed -    
Visibility 8.2 miles    
Events      
Averages and records for this station are not official NWS values.
T = Trace of Precipitation, MM = Missing Value Source: Averaged Metar Reports

Daily Weather History Graph

Daily Weather History Graph

Search for Another Location

Airport:

Trip Planner

Search our weather history database for the weather conditions in past years. The results will help you decide how hot, cold, wet, or windy it might be!

Date:

Astronomy

Oct. 19, 2011 Rise Set
Actual Time 6:23 AM AST 6:12 PM AST
Civil Twilight 6:01 AM AST 6:34 PM AST
Nautical Twilight 5:37 AM AST 6:58 PM AST
Astronomical Twilight 5:12 AM AST 7:23 PM AST
Moon No Moon Rise 12:24 PM AST (10/19)
Length of Visible Light 12h 32m
Length of Day
11h 49m
Waning Gibbous, 55% of the Moon is Illuminated
Oct 19
Waning Gibbous
Oct 19
Last Quarter
Oct 26
New
Nov 2
First Quarter
Nov 10
Full

Hourly Weather History & Observations

Time (AST) Temp. Heat Index Dew Point Humidity Pressure Visibility Wind Dir Wind Speed Gust Speed Precip Events Conditions
2:00 AM 80.6 °F 86.2 °F 75.2 °F 84% 29.89 in - Calm Calm - N/A   Unknown
4:00 AM 78.8 °F - 73.4 °F 83% 29.86 in - Calm Calm - N/A   Unknown
5:00 AM 79 °F - 74 °F 79%  in - Calm Calm - -   Clear
5:00 AM 78.8 °F - 73.4 °F 83% 29.86 in - North - - N/A   Unknown
6:00 AM 78.8 °F - 73.4 °F 83% 29.89 in - North - - N/A   Unknown
7:00 AM 78.8 °F - 75.2 °F 89% 29.92 in - North - - N/A   Unknown
8:00 AM 82 °F - 72 °F 66% 29.94 in 19 mi 3.5 mph - -   Partly Cloudy
8:00 AM 82.4 °F 89.5 °F 75.2 °F 79% 29.92 in 6.2 mi East 3.5 mph - N/A   Scattered Clouds
11:00 AM 90 °F - 71 °F 44% 29.97 in 22 mi East 10.4 mph - -   Partly Cloudy
12:00 PM 89.6 °F 96.2 °F 71.6 °F 55% 29.95 in 6.2 mi East 10.4 mph - N/A   Scattered Clouds
1:00 PM 87.8 °F 95.6 °F 73.4 °F 62% 29.92 in 6.2 mi East 10.4 mph - N/A   Mostly Cloudy
2:00 PM 87 °F - 74 °F 58% 29.90 in 22 mi ESE 9.2 mph - -   Partly Cloudy
2:00 PM 87.8 °F 95.6 °F 73.4 °F 62% 29.89 in 6.2 mi ESE 9.2 mph - N/A   Scattered Clouds
3:00 PM 87.8 °F 97.6 °F 75.2 °F 66% 29.86 in 6.2 mi SE 9.2 mph - N/A   Scattered Clouds
4:00 PM 86.0 °F 93.4 °F 73.4 °F 66% 29.86 in 6.2 mi East 8.1 mph - N/A   Scattered Clouds
5:00 PM 85 °F - 73 °F 59% 29.87 in 22 mi East 8.1 mph - -   Partly Cloudy
5:00 PM 84.2 °F 90.9 °F 73.4 °F 70% 29.86 in 6.2 mi East 8.1 mph - N/A   Scattered Clouds
7:00 PM 82.4 °F 88.2 °F 73.4 °F 74% 29.89 in 6.2 mi Calm Calm - N/A   Scattered Clouds
8:00 PM 82 °F - 74 °F 69% 29.94 in 19 mi East 2.3 mph - -   Partly Cloudy
8:00 PM 82.4 °F 88.2 °F 73.4 °F 74% 29.92 in 6.2 mi East 2.3 mph - N/A   Scattered Clouds
9:00 PM 80.6 °F 85.4 °F 73.4 °F 79% 29.95 in 6.2 mi Calm Calm - N/A   Scattered Clouds
10:00 PM 80.6 °F 85.4 °F 73.4 °F 79% 29.95 in 6.2 mi Calm Calm - N/A   Scattered Clouds
11:00 PM 80.6 °F 85.4 °F 73.4 °F 79% 29.95 in - North - - N/A   Unknown